This demonstration page uses our WeatherBlox Daily Observations layout. Learn more.

Left ArrowRight Arrow

Hourly Observations for March 16, 2022

Temp ( °F °C ) Dew Point ( °F °C ) Humidity (%) Winds ( mph kmh ) Pressure ( in mb ) Visibility ( mi km ) Precip ( " mm )
12:56 am 00:56 Clear 45 7.2 24 -4.4 44 44 S 16 26 29.92 1013 10 16 0.00 0.00
1:56 am 01:56 Clear 44 6.7 25 -3.9 47 47 S 16 26 29.90 1013 10 16 0.00 0.00
2:56 am 02:56 Clear 42 5.6 25 -3.9 51 51 SSW 13 20 29.89 1012 10 16 0.00 0.00
3:56 am 03:56 Clear 41 5 25 -3.9 53 53 SW 9 15 29.88 1012 10 16 0.00 0.00
4:56 am 04:56 Clear 40 4.4 24 -4.4 53 53 WNW 6 9 29.87 1012 10 16 0.00 0.00
5:56 am 05:56 Clear 35 1.7 22 -5.6 59 59 S 10 17 29.84 1011 10 16 0.00 0.00
6:56 am 06:56 Clear 32 0 22 -5.6 66 66 Calm 29.84 1011 10 16 0.00 0.00
7:56 am 07:56 Sunny 34 1.1 22 -5.6 61 61 SW 7 11 29.85 1011 10 16 0.00 0.00
8:56 am 08:56 Sunny 41 5 24 -4.4 51 51 SW 13 20 29.85 1011 10 16 0.00 0.00
9:56 am 09:56 Sunny 47 8.3 25 -3.9 42 42 WSW 8 13 29.85 1011 10 16 0.00 0.00
10:56 am 10:56 Sunny 54 12.2 26 -3.3 34 34 WSW 9 15 29.84 1011 10 16 0.00 0.00
11:56 am 11:56 Sunny 61 16.1 26 -3.3 26 26 VRB 7 11 29.82 1010 10 16 0.00 0.00
12:56 pm 12:56 Sunny 66 18.9 28 -2.2 24 24 N 12 19 29.80 1009 10 16 0.00 0.00
1:56 pm 13:56 Sunny 66 18.9 28 -2.2 24 24 N 16 26 29.78 1009 10 16 0.00 0.00
2:56 pm 14:56 Sunny 69 20.6 28 -2.2 22 22 NNE 17 28 29.76 1008 10 16 0.00 0.00
3:56 pm 15:56 Sunny 67 19.4 28 -2.2 23 23 NNE 21 33 29.77 1008 10 16 0.00 0.00
4:56 pm 16:56 Sunny 64 17.8 32 0 30 30 NNE 22 35 29.77 1008 10 16 0.00 0.00
5:56 pm 17:56 Sunny 65 18.3 33 0.6 31 31 NNE 21 33 29.78 1008 10 16 0.00 0.00
6:56 pm 18:56 Sunny 61 16.1 30 -1.1 31 31 NNE 16 26 29.80 1009 10 16 0.00 0.00
7:56 pm 19:56 Clear 57 13.9 32 0 39 39 NNE 14 22 29.84 1011 10 16 0.00 0.00
8:56 pm 20:56 Mostly Cloudy 56 13.3 32 0 40 40 NNE 10 17 29.85 1011 10 16 0.00 0.00
9:56 pm 21:56 Clear 52 11.1 31 -0.6 45 45 NNE 10 17 29.85 1011 10 16 0.00 0.00
10:56 pm 22:56 Clear 51 10.6 32 0 48 48 NNE 10 17 29.85 1011 10 16 0.00 0.00
11:56 pm 23:56 Mostly Clear 51 10.6 33 0.6 50 50 NNE 12 19 29.83 1010 10 16 0.00 0.00

Powered by AerisWeather